Worcester, MA

9:11 AM EDT on June 25, 2017 (GMT -0400)
Worcester Regional

Weather History for KORH - May, 2014

Change the Weather History Date:

Monday, May 12, 2014

  Actual Average Record
Temperature  
Mean Temperature 69 °F 55 °F  
Max Temperature 83 °F 65 °F 88 °F (1959)
Min Temperature 55 °F 46 °F 29 °F (1907)
Degree Days  
Heating Degree Days 0 10  
Month to date heating degree days 114 141  
Since 1 July heating degree days 6879 6488  
Cooling Degree Days 4 0  
Month to date cooling degree days 6 0  
Year to date cooling degree days 6 3  
Growing Degree Days 18 (Base 50)    
Moisture  
Dew Point 39 °F    
Average Humidity 42    
Maximum Humidity 63    
Minimum Humidity 20    
Precipitation  
Precipitation 0.00 in 0.13 in 1.53 in (1974)
Month to date precipitation 1.33 1.51  
Year to date precipitation 18.37 16.55  
Snow  
Snow 0.00 in 0.00 in 0.00 in (2001)
Month to date snowfall 0.0 0.0  
Since 1 July snowfall 85.2 64.1  
Snow Depth 0.00 in    
Sea Level Pressure  
Sea Level Pressure 30.07 in    
Wind  
Wind Speed 10 mph (West)    
Max Wind Speed 22 mph    
Max Gust Speed 30 mph    
Visibility 10 miles    
Events      
T = Trace of Precipitation, MM = Missing Value Source: NWS Daily Summary

Daily Weather History Graph

Daily Weather History Graph

Search for Another Location

Airport or City:

Trip Planner

Search our weather history database for the weather conditions in past years. The results will help you decide how hot, cold, wet, or windy it might be!

Date:

Astronomy

May. 12, 2014 Rise Set
Actual Time 5:29 AM EDT 7:58 PM EDT
Civil Twilight 4:57 AM EDT 8:30 PM EDT
Nautical Twilight 4:18 AM EDT 9:10 PM EDT
Astronomical Twilight 3:33 AM EDT 9:55 PM EDT
Moon 5:51 PM EDT (5/12) 4:09 AM EDT (5/12)
Length of Visible Light 15h 33m
Length of Day
14h 29m
Waxing Gibbous, 95% of the Moon is Illuminated
May 12
Waxing Gibbous
May 14
Full
May 21
Last Quarter
May 28
New
Jun 5
First Quarter

Hourly Weather History & Observations

Time (EDT) Temp. Dew Point Humidity Pressure Visibility Wind Dir Wind Speed Gust Speed Precip Events Conditions
12:54 AM 60.1 °F 35.1 °F 39% 30.07 in 10.0 mi NNW 3.5 mph - N/A   Clear
1:54 AM 57.0 °F 34.0 °F 42% 30.08 in 10.0 mi West 6.9 mph - N/A   Clear
2:54 AM 57.9 °F 35.1 °F 42% 30.08 in 10.0 mi West 8.1 mph - N/A   Clear
3:54 AM 57.0 °F 35.1 °F 44% 30.09 in 10.0 mi West 10.4 mph - N/A   Clear
4:54 AM 55.9 °F 35.1 °F 45% 30.10 in 10.0 mi West 10.4 mph - N/A   Clear
5:54 AM 57.0 °F 36.0 °F 45% 30.11 in 10.0 mi West 8.1 mph - N/A   Clear
6:54 AM 61.0 °F 35.1 °F 38% 30.11 in 10.0 mi West 8.1 mph - N/A   Scattered Clouds
7:54 AM 64.9 °F 36.0 °F 34% 30.11 in 10.0 mi WNW 9.2 mph - N/A   Clear
8:54 AM 70.0 °F 33.1 °F 26% 30.12 in 10.0 mi WNW 9.2 mph - N/A   Clear
9:54 AM 71.6 °F 33.8 °F 25% 30.12 in 10.0 mi West 8.1 mph - N/A   Clear
10:54 AM 73.9 °F 36.0 °F 25% 30.11 in 10.0 mi WSW 10.4 mph - N/A   Clear
11:54 AM 77.0 °F 37.0 °F 24% 30.09 in 10.0 mi WSW 10.4 mph 17.3 mph N/A   Clear
12:54 PM 79.0 °F 36.0 °F 21% 30.07 in 10.0 mi West 13.8 mph 20.7 mph N/A   Clear
1:54 PM 79.0 °F 36.0 °F 21% 30.06 in 10.0 mi West 8.1 mph 20.7 mph N/A   Clear
2:54 PM 81.0 °F 37.9 °F 21% 30.04 in 10.0 mi WSW 17.3 mph 23.0 mph N/A   Clear
3:54 PM 82.0 °F 37.0 °F 20% 30.01 in 10.0 mi WNW 17.3 mph 26.5 mph N/A   Clear
4:54 PM 82.0 °F 37.9 °F 21% 30.00 in 10.0 mi West 8.1 mph - N/A   Clear
5:54 PM 82.0 °F 39.0 °F 22% 30.00 in 10.0 mi West 11.5 mph - N/A   Clear
6:54 PM 81.0 °F 37.9 °F 21% 30.01 in 10.0 mi West 8.1 mph - N/A   Clear
7:54 PM 73.9 °F 46.9 °F 38% 30.03 in 10.0 mi WSW 10.4 mph - N/A   Clear
8:54 PM 72.0 °F 51.1 °F 48% 30.04 in 10.0 mi WSW 10.4 mph 19.6 mph N/A   Clear
9:54 PM 66.9 °F 52.0 °F 59% 30.06 in 10.0 mi WSW 8.1 mph - N/A   Clear
10:54 PM 66.9 °F 54.0 °F 63% 30.06 in 10.0 mi West 10.4 mph - N/A   Clear
11:54 PM 69.1 °F 53.1 °F 57% 30.06 in 10.0 mi NNW 4.6 mph - N/A   Clear